Location: R�o Tuerlos
(40.6704°N, 4.4622°W)
Time: 06:12:16
(UTC+00:00)

Cosmos 2278 - Pass Details

Date: 07 June 2020
Orbit: 838 x 854 km, 71.1° (Epoch: 04 July)

Event Time Altitude Azimuth Distance (km) Brightness Sun altitude
Exits shadow 01:38:04 36° 261° (W) 1,307 4.4 -23.8°
Maximum altitude 01:39:35 44° 299° (WNW) 1,156 4.4 -23.7°
Drops below altitude 10° 01:44:59 10° 11° (NNE) 2,473 7.2 -23.3°
Sets 01:47:34 0° 18° (NNE) 3,414 8.3 -23.1°
